Location: Clyde
(45.1830°S, 169.3170°E)
Time: 08:09:34
(UTC+13:00)

Timation 1 Rocket - Pass Details

Date: 24 January 2019
Orbit: 900 x 907 km, 70.0° (Epoch: 19 February)

Event Time Altitude Azimuth Distance (km) Brightness Sun altitude
Rises 23:19:46 0° 210° (SSW) 3,571 9.2 -16.6°
Reaches altitude 10° 23:22:18 10° 211° (SSW) 2,622 8.1 -16.9°
Maximum altitude 23:28:21 73° 294° (WNW) 957 4.5 -17.5°
Enters shadow 23:31:47 27° 13° (NNE) 1,686 5.2 -17.9°
